Stündliche Wetter Holozubyntsi

Heute, 21 Juni, Montag

Zeit Temperatur Niederschläge Wind Luftdruck Luftfeuchtigkeit
00:00 +19°C° 0 mm 2 m/S 736 mmHg 93%
01:00 +18°C° 0 mm 2 m/S 735 mmHg 93%
02:00 +18°C° 0 mm 2 m/S 735 mmHg 93%
03:00 +18°C° 0 mm 2 m/S 735 mmHg 92%
04:00 +18°C° 0 mm 2 m/S 735 mmHg 92%
05:00 +18°C° 0 mm 2 m/S 735 mmHg 91%
06:00 +19°C° 0 mm 2 m/S 735 mmHg 89%
07:00 +20°C° 0 mm 2 m/S 735 mmHg 86%
08:00 +21°C° 0 mm 2 m/S 735 mmHg 84%
09:00 +23°C° 0 mm 2 m/S 735 mmHg 80%
10:00 +24°C° 0 mm 2 m/S 735 mmHg 77%
11:00 +25°C° 0 mm 2 m/S 736 mmHg 73%
12:00 +26°C° 0.1 mm 2 m/S 735 mmHg 69%
13:00 +27°C° 0.1 mm 2 m/S 735 mmHg 66%
14:00 +28°C° 0.1 mm 3 m/S 735 mmHg 62%
15:00 +28°C° 0.1 mm 3 m/S 735 mmHg 64%
16:00 +27°C° 0.1 mm 3 m/S 735 mmHg 67%
17:00 +27°C° 0.1 mm 2 m/S 735 mmHg 69%
18:00 +26°C° 0.1 mm 2 m/S 735 mmHg 74%
19:00 +25°C° 0.1 mm 2 m/S 735 mmHg 79%
20:00 +23°C° 0.1 mm 2 m/S 735 mmHg 84%
21:00 +21°C° 0 mm 2 m/S 735 mmHg 85%
22:00 +21°C° 0 mm 2 m/S 735 mmHg 86%
23:00 +21°C° 0 mm 1 m/S 735 mmHg 87%

Morgen, 22 Juni, Dienstag

Zeit Temperatur Niederschläge Wind Luftdruck Luftfeuchtigkeit
00:00 +21°C° 0 mm 1 m/S 735 mmHg 88%
01:00 +20°C° 0 mm 1 m/S 735 mmHg 88%
02:00 +20°C° 0 mm 1 m/S 735 mmHg 88%
03:00 +20°C° 0 mm 1 m/S 735 mmHg 88%
04:00 +19°C° 0 mm 2 m/S 735 mmHg 87%
05:00 +19°C° 0 mm 2 m/S 735 mmHg 87%
06:00 +21°C° 0 mm 2 m/S 736 mmHg 83%
07:00 +22°C° 0 mm 3 m/S 736 mmHg 79%
08:00 +25°C° 0 mm 3 m/S 736 mmHg 75%
09:00 +26°C° 0 mm 3 m/S 736 mmHg 71%
10:00 +27°C° 0 mm 3 m/S 736 mmHg 67%
11:00 +29°C° 0 mm 2 m/S 736 mmHg 63%
12:00 +29°C° 0 mm 2 m/S 736 mmHg 61%
13:00 +30°C° 0 mm 2 m/S 736 mmHg 59%
14:00 +30°C° 0 mm 2 m/S 736 mmHg 57%
15:00 +30°C° 0.3 mm 2 m/S 736 mmHg 60%
16:00 +29°C° 0.3 mm 2 m/S 736 mmHg 63%
17:00 +29°C° 0.3 mm 3 m/S 736 mmHg 66%
18:00 +28°C° 0.1 mm 2 m/S 736 mmHg 72%
19:00 +26°C° 0.1 mm 2 m/S 736 mmHg 77%
20:00 +25°C° 0.1 mm 2 m/S 736 mmHg 82%
21:00 +24°C° 0.1 mm 2 m/S 736 mmHg 84%
22:00 +23°C° 0.1 mm 2 m/S 736 mmHg 86%
23:00 +23°C° 0.1 mm 2 m/S 736 mmHg 87%

übermorgen, 23 Juni, Mittwoch

Zeit Temperatur Niederschläge Wind Luftdruck Luftfeuchtigkeit
00:00 +22°C° 0 mm 1 m/S 736 mmHg 88%
01:00 +22°C° 0 mm 1 m/S 736 mmHg 88%
02:00 +20°C° 0 mm 0 m/S 736 mmHg 88%
03:00 +22°C° 0 mm 1 m/S 736 mmHg 89%
04:00 +22°C° 0 mm 1 m/S 737 mmHg 91%
05:00 +20°C° 0 mm 2 m/S 737 mmHg 92%
06:00 +23°C° 0 mm 2 m/S 737 mmHg 88%
07:00 +25°C° 0 mm 2 m/S 737 mmHg 83%
08:00 +26°C° 0 mm 2 m/S 737 mmHg 78%
09:00 +27°C° 0 mm 2 m/S 738 mmHg 73%
10:00 +28°C° 0 mm 2 m/S 738 mmHg 69%
11:00 +29°C° 0 mm 2 m/S 738 mmHg 64%
12:00 +30°C° 0 mm 2 m/S 738 mmHg 61%
13:00 +30°C° 0 mm 2 m/S 738 mmHg 59%
14:00 +31°C° 0 mm 2 m/S 738 mmHg 56%
15:00 +31°C° 0 mm 2 m/S 738 mmHg 57%
16:00 +31°C° 0 mm 2 m/S 738 mmHg 58%
17:00 +31°C° 0 mm 2 m/S 738 mmHg 59%
18:00 +29°C° 0 mm 2 m/S 738 mmHg 66%
19:00 +28°C° 0 mm 2 m/S 738 mmHg 72%
20:00 +26°C° 0 mm 2 m/S 738 mmHg 78%
21:00 +25°C° 0 mm 2 m/S 738 mmHg 82%
22:00 +24°C° 0 mm 2 m/S 738 mmHg 85%
23:00 +23°C° 0 mm 2 m/S 738 mmHg 88%

24 Juni, Donnerstag

Zeit Temperatur Niederschläge Wind Luftdruck Luftfeuchtigkeit
00:00 +23°C° 0 mm 2 m/S 738 mmHg 89%
01:00 +21°C° 0 mm 2 m/S 738 mmHg 89%
02:00 +21°C° 0 mm 2 m/S 738 mmHg 90%
03:00 +20°C° 0 mm 2 m/S 738 mmHg 91%
04:00 +20°C° 0 mm 2 m/S 738 mmHg 91%
05:00 +20°C° 0 mm 2 m/S 738 mmHg 92%
06:00 +23°C° 0 mm 2 m/S 738 mmHg 87%
07:00 +24°C° 0 mm 2 m/S 739 mmHg 82%
08:00 +26°C° 0 mm 3 m/S 739 mmHg 78%
09:00 +27°C° 0 mm 3 m/S 739 mmHg 73%
10:00 +28°C° 0 mm 3 m/S 739 mmHg 68%
11:00 +30°C° 0 mm 3 m/S 739 mmHg 64%
12:00 +30°C° 0.1 mm 2 m/S 739 mmHg 61%
13:00 +31°C° 0.1 mm 1 m/S 739 mmHg 58%
14:00 +31°C° 0.1 mm 1 m/S 739 mmHg 55%
15:00 +31°C° 0.1 mm 1 m/S 739 mmHg 57%
16:00 +31°C° 0.1 mm 1 m/S 739 mmHg 60%
17:00 +31°C° 0.1 mm 2 m/S 739 mmHg 62%
18:00 +29°C° 0.1 mm 2 m/S 739 mmHg 67%
19:00 +28°C° 0.1 mm 2 m/S 738 mmHg 73%
20:00 +26°C° 0.1 mm 2 m/S 738 mmHg 78%
21:00 +25°C° 0.2 mm 1 m/S 738 mmHg 80%
22:00 +25°C° 0.2 mm 1 m/S 738 mmHg 82%
23:00 +24°C° 0.2 mm 1 m/S 738 mmHg 84%

25 Juni, Freitag

Zeit Temperatur Niederschläge Wind Luftdruck Luftfeuchtigkeit
00:00 +23°C° 0.1 mm 1 m/S 738 mmHg 85%
01:00 +23°C° 0.1 mm 1 m/S 738 mmHg 86%
02:00 +21°C° 0.1 mm 0 m/S 738 mmHg 86%
03:00 +23°C° 0 mm 1 m/S 738 mmHg 87%
04:00 +23°C° 0 mm 1 m/S 738 mmHg 87%
05:00 +23°C° 0 mm 1 m/S 737 mmHg 87%
06:00 +24°C° 0 mm 1 m/S 738 mmHg 83%
07:00 +26°C° 0 mm 1 m/S 738 mmHg 79%
08:00 +27°C° 0 mm 1 m/S 738 mmHg 75%
09:00 +28°C° 0 mm 1 m/S 738 mmHg 70%
10:00 +29°C° 0 mm 1 m/S 738 mmHg 65%
11:00 +30°C° 0 mm 1 m/S 738 mmHg 61%
12:00 +31°C° 0 mm 1 m/S 738 mmHg 58%
13:00 +32°C° 0 mm 1 m/S 738 mmHg 55%
14:00 +32°C° 0 mm 1 m/S 737 mmHg 52%
15:00 +32°C° 0 mm 1 m/S 737 mmHg 54%
16:00 +32°C° 0 mm 2 m/S 736 mmHg 56%
17:00 +32°C° 0 mm 2 m/S 736 mmHg 57%
18:00 +30°C° 0.2 mm 2 m/S 736 mmHg 65%
19:00 +28°C° 0.2 mm 2 m/S 736 mmHg 72%
20:00 +26°C° 0.2 mm 2 m/S 737 mmHg 79%
21:00 +25°C° 0.3 mm 2 m/S 737 mmHg 83%
22:00 +24°C° 0.3 mm 2 m/S 737 mmHg 87%
23:00 +21°C° 0.3 mm 2 m/S 736 mmHg 91%

26 Juni, Samstag

Zeit Temperatur Niederschläge Wind Luftdruck Luftfeuchtigkeit
00:00 +21°C° 0.5 mm 2 m/S 736 mmHg 91%
01:00 +21°C° 0.5 mm 2 m/S 737 mmHg 92%
02:00 +21°C° 0.5 mm 2 m/S 737 mmHg 92%
03:00 +20°C° 0.1 mm 2 m/S 736 mmHg 93%
04:00 +20°C° 0.1 mm 2 m/S 736 mmHg 94%
05:00 +20°C° 0.1 mm 2 m/S 736 mmHg 95%
06:00 +21°C° 0.3 mm 3 m/S 737 mmHg 92%
07:00 +21°C° 0.3 mm 4 m/S 737 mmHg 89%
08:00 +22°C° 0.3 mm 5 m/S 738 mmHg 87%
09:00 +22°C° 0.1 mm 5 m/S 737 mmHg 83%
10:00 +23°C° 0.1 mm 5 m/S 737 mmHg 80%
11:00 +25°C° 0.1 mm 4 m/S 737 mmHg 77%
12:00 +26°C° 0 mm 4 m/S 737 mmHg 74%
13:00 +26°C° 0 mm 4 m/S 737 mmHg 70%
14:00 +27°C° 0 mm 4 m/S 737 mmHg 67%
15:00 +27°C° 0 mm 4 m/S 737 mmHg 69%
16:00 +27°C° 0 mm 4 m/S 736 mmHg 71%
17:00 +26°C° 0 mm 4 m/S 736 mmHg 73%
18:00 +25°C° 0.2 mm 3 m/S 736 mmHg 78%
19:00 +24°C° 0.2 mm 3 m/S 736 mmHg 83%
20:00 +22°C° 0.2 mm 3 m/S 735 mmHg 88%
21:00 +21°C° 2.2 mm 3 m/S 735 mmHg 90%
22:00 +20°C° 2.2 mm 3 m/S 736 mmHg 93%
23:00 +20°C° 2.2 mm 3 m/S 736 mmHg 95%
Mehr zeigen

Wir brauchen deine Erlaubnis

Meteoprog und unser Service Anbieter werden persönliche Daten aufbewahren, so wie Cookies, Geräte Bezeichnung oder ähnliche Technologien von deinem Gerät und Prozess, so wie Persönliche Daten Inhalte und Werbungen, genauso wie social Media und den Verkehr zu analysieren.

  • Aufbewahrung und/oder Zugang zu deiner Geräte Informationen.

    Cookies, Geräte Bezeichnung oder andere Informationen, können aufbewahrt oder Zugang zu deinem Gerät erhalten, für den Grund, der oben angegeben wird.

  • Personalisierte Werbung und Inhalte, Messungen, Einblick in das Publikum und Produkt Entwicklung.

    Werbungen und Inhalte können personalisiert werden, basierend auf ein Profil. Mehr Daten können besser personalisierte Werbungen und Inhalte hinzufügen. Werbung und Inhalte können gezeigt und gemessen werden. Einblicke über das Publikum, welche die Werbung gesehen haben und den Inhalt, können abgeleitet werden. So wie Daten können genutzt werden, um es zu verbessern oder die Benutzer Erfahrung zu verbessern das System und die Software.

Wenn du “Ich stimme zu” klickst, erlaubst du uns, die Cookies zu benutzen die Geräte Bezeichnung, den Web oder ähnliche Technologien zu benutzen. Deine Settings, können in deinem Gerät bei deinem Browser geändert werden.

Für den bestimmten Zweck, berechtigten Interessen beruhen darauf, mehr als auf den Inhalt. Du kannst mehr darüber in unseren Privaten und Cookie Politik lesen.